Clines Corners, NM

8:05 PM MST on February 20, 2017 (GMT -0700)
Clines Corner

Weather History for KCQC - January, 2014

Change the Weather History Date:

Thursday, January 23, 2014

  Actual Average (KSAF) Record (KSAF)
Temperature  
Mean Temperature 16 °F -  
Max Temperature 21 °F 42 °F 57 °F (2009)
Min Temperature 10 °F 20 °F 10 °F (2007)
Degree Days  
Heating Degree Days 50    
Moisture  
Dew Point 11 °F    
Average Humidity 85    
Maximum Humidity 92    
Minimum Humidity 60    
Precipitation  
Precipitation 0.01 in - - ()
Sea Level Pressure  
Sea Level Pressure 30.36 in    
Wind  
Wind Speed 15 mph (East)    
Max Wind Speed 22 mph    
Max Gust Speed 30 mph    
Visibility 5 miles    
Events Fog , Snow    
Averages and records for this station are not official NWS values.
T = Trace of Precipitation, MM = Missing Value Source: NWS Daily Summary

Daily Weather History Graph

Daily Weather History Graph

Search for Another Location

Airport or City:

Trip Planner

Search our weather history database for the weather conditions in past years. The results will help you decide how hot, cold, wet, or windy it might be!

Date:

Astronomy

Jan. 23, 2014 Rise Set
Actual Time 7:07 AM MST 5:22 PM MST
Civil Twilight 6:39 AM MST 5:49 PM MST
Nautical Twilight 6:09 AM MST 6:20 PM MST
Astronomical Twilight 5:39 AM MST 6:50 PM MST
Moon No Moon Rise 11:01 AM MST (1/23)
Length of Visible Light 11h 09m
Length of Day
10h 15m
Waning Gibbous, 54% of the Moon is Illuminated
Jan 23
Waning Gibbous
Jan 23
Last Quarter
Jan 30
New
Feb 6
First Quarter
Feb 14
Full

Hourly Weather History & Observations

Time (MST) Temp. Windchill Dew Point Humidity Pressure Visibility Wind Dir Wind Speed Gust Speed Precip Events Conditions
12:53 AM 21.0 °F 9.3 °F 9.0 °F 60% 30.08 in 10.0 mi East 11.5 mph - N/A   Clear
1:53 AM 21.0 °F 9.9 °F 12.0 °F 68% 30.08 in 10.0 mi East 10.4 mph - N/A   Clear
2:53 AM 19.9 °F 7.3 °F 12.0 °F 71% 30.10 in 10.0 mi East 12.7 mph - N/A   Clear
3:53 AM 18.0 °F 4.8 °F 12.0 °F 78% 30.14 in 10.0 mi East 12.7 mph - N/A   Clear
4:39 AM 18.0 °F 4.2 °F 12.9 °F 81% 30.13 in 10.0 mi East 13.8 mph - N/A   Mostly Cloudy
4:53 AM 18.0 °F 3.1 °F 12.9 °F 81% 30.18 in 10.0 mi East 16.1 mph - N/A   Mostly Cloudy
5:19 AM 19.0 °F 4.0 °F 12.9 °F 77% 30.15 in 10.0 mi East 17.3 mph - N/A   Overcast
5:53 AM 19.0 °F 4.0 °F 14.0 °F 81% 30.22 in 10.0 mi East 17.3 mph - N/A   Overcast
6:53 AM 19.0 °F 3.6 °F 15.1 °F 85% 30.25 in 10.0 mi East 18.4 mph - N/A   Overcast
7:31 AM 19.0 °F 3.6 °F 16.0 °F 88% 30.20 in 10.0 mi East 18.4 mph - N/A   Overcast
7:53 AM 18.0 °F 0.9 °F 16.0 °F 92% 30.30 in 8.0 mi East 21.9 mph - N/A   Overcast
8:17 AM 18.0 °F 0.9 °F 16.0 °F 92% 30.22 in 1.8 mi ESE 21.9 mph 29.9 mph 0.00 in Snow Light Snow
8:27 AM 18.0 °F 0.9 °F 16.0 °F 92% 30.23 in 0.5 mi ESE 21.9 mph - 0.00 in Fog , Snow Light Snow
8:53 AM 19.0 °F 3.6 °F 16.0 °F 88% 30.35 in 1.0 mi East 18.4 mph - 0.00 in Snow Light Snow
9:20 AM 19.0 °F 4.0 °F 16.0 °F 88% 30.27 in 2.5 mi ESE 17.3 mph - 0.00 in Snow Light Snow
9:53 AM 18.0 °F 0.9 °F 16.0 °F 92% 30.40 in 2.5 mi East 21.9 mph 26.5 mph 0.00 in Snow Light Snow
10:08 AM 18.0 °F 1.3 °F 16.0 °F 92% 30.30 in 4.0 mi ESE 20.7 mph 28.8 mph 0.00 in Snow Light Snow
10:53 AM 18.0 °F 1.3 °F 15.1 °F 88% 30.45 in 3.0 mi East 20.7 mph - 0.00 in Snow Light Snow
11:01 AM 17.1 °F 2.5 °F 14.0 °F 88% 30.32 in 2.5 mi ESE 15.0 mph - 0.00 in Snow Light Snow
11:11 AM 18.0 °F 1.7 °F 15.1 °F 88% 30.31 in 4.0 mi ESE 19.6 mph 25.3 mph 0.00 in Snow Light Snow
11:33 AM 18.0 °F 2.6 °F 15.1 °F 88% 30.31 in 2.5 mi East 17.3 mph - 0.00 in Snow Light Snow
11:53 AM 16.0 °F 0.1 °F 12.9 °F 88% 30.46 in 2.5 mi East 17.3 mph - 0.00 in Snow Light Snow
12:00 PM 16.0 °F -0.9 °F 12.9 °F 88% 30.32 in 3.0 mi East 19.6 mph - 0.00 in Snow Light Snow
12:08 PM 15.1 °F -2.0 °F 12.9 °F 91% 30.32 in 1.8 mi East 19.6 mph - 0.00 in Snow Light Snow
12:53 PM 14.0 °F -3.0 °F 12.0 °F 92% 30.48 in 1.5 mi East 18.4 mph 25.3 mph 0.01 in Snow Light Snow
1:05 PM 12.9 °F -4.4 °F 10.9 °F 92% 30.32 in 2.5 mi East 18.4 mph - 0.00 in Snow Light Snow
1:53 PM 14.0 °F -3.0 °F 10.9 °F 88% 30.48 in 1.5 mi East 18.4 mph - 0.00 in Snow Light Snow
2:03 PM 14.0 °F -1.4 °F 10.9 °F 88% 30.32 in 2.5 mi East 15.0 mph - 0.00 in Snow Light Snow
2:16 PM 12.9 °F -4.4 °F 10.0 °F 88% 30.32 in 1.2 mi East 18.4 mph - 0.00 in Snow Light Snow
2:42 PM 12.9 °F -3.4 °F 10.0 °F 88% 30.34 in 1.2 mi East 16.1 mph - 0.00 in Snow Light Snow
2:53 PM 12.9 °F -2.8 °F 10.0 °F 88% 30.52 in 1.5 mi East 15.0 mph - 0.00 in Snow Light Snow
3:53 PM 12.0 °F -4.0 °F 9.0 °F 88% 30.56 in 1.5 mi East 15.0 mph - 0.00 in Snow Light Snow
4:05 PM 12.0 °F -3.4 °F 8.1 °F 84% 30.36 in 2.5 mi East 13.8 mph - 0.00 in Snow Light Snow
4:26 PM 10.9 °F -4.1 °F 8.1 °F 88% 30.36 in 3.0 mi East 12.7 mph - 0.00 in Snow Light Snow
4:39 PM 10.9 °F -3.4 °F 8.1 °F 88% 30.36 in 1.8 mi East 11.5 mph - 0.00 in Snow Light Snow
4:53 PM 10.9 °F -3.4 °F 8.1 °F 88% 30.57 in 1.8 mi East 11.5 mph - 0.00 in Snow Light Snow
5:24 PM 10.0 °F -4.5 °F 7.0 °F 87% 30.38 in 3.0 mi East 11.5 mph - 0.00 in Snow Light Snow
5:50 PM 10.4 °F -4.1 °F 6.8 °F 85% 30.38 in 6.0 mi East 11.5 mph - 0.00 in Snow Light Snow
5:53 PM 10.0 °F -2.9 °F 6.1 °F 84% 30.58 in 5.0 mi East 9.2 mph - 0.00 in Snow Light Snow
6:53 PM 10.0 °F -3.7 °F 6.1 °F 84% 30.60 in 10.0 mi East 10.4 mph - 0.00 in   Overcast
7:26 PM 10.0 °F -0.9 °F 7.0 °F 87% 30.41 in 10.0 mi East 6.9 mph - N/A   Overcast
7:53 PM 10.0 °F 0.4 °F 6.1 °F 84% 30.62 in 10.0 mi ESE 5.8 mph - N/A   Overcast
8:53 PM 10.9 °F - 7.0 °F 84% 30.62 in 10.0 mi Calm Calm - N/A   Overcast
9:53 PM 12.9 °F 6.9 °F 9.0 °F 84% 30.63 in 10.0 mi SSW 3.5 mph - N/A   Overcast
10:53 PM 12.9 °F 5.2 °F 9.0 °F 84% 30.63 in 10.0 mi West 4.6 mph - N/A   Overcast
11:50 PM 10.4 °F -3.3 °F 6.8 °F 85% 30.41 in 10.0 mi WNW 10.4 mph - N/A   Overcast
11:53 PM 10.9 °F -1.8 °F 7.0 °F 84% 30.62 in 10.0 mi WNW 9.2 mph - N/A   Overcast